,

(GMT )
Teruel

Tiempo Historia de LETL - Septiembre, 2017

Change the Weather History Date:

Miércoles, Septiembre 13, 2017

  Actual Average Record
Temperature  
Temperatura media 65 ° F -  
Temperatura máxima 84 ° F - - ()
Temperatura mínima 46 ° F - - ()
Growing Degree Days 15 (Base 50)    
Moisture  
Punto de rocío 39 ° F    
Average Humidity 44    
Maximum Humidity 71    
Minimum Humidity 19    
Precipitación  
Precipitación 0.00 pul - - ()
Presión al nivel del mar  
Presión al nivel del mar 30.27 pul    
Viento  
Velocidad del viento 5 mph ()    
Velocidad máxima del viento 18 mph    
Max Gust Speed 30 mph    
Visibilidad 6.2 Millas    
Eventos      
T = Trace of Precipitation, MM = Missing Value Source: Averaged Metar Reports

Daily Weather History Graph

Daily Weather History Graph

Search for Another Location

Airport or City:

Trip Planner

Search our weather history database for the weather conditions in past years. The results will help you decide how hot, cold, wet, or windy it might be!

Date:

Astronomía

Sep. 13, 2017 Salida Puesta
Hora real 7:43 AM CEST 8:17 PM CEST
Crepúsculo civil 7:16 AM CEST 8:44 PM CEST
Crepúsculo náutico 6:44 AM CEST 9:16 PM CEST
Crepúsculo astronómico 6:10 AM CEST 9:49 PM CEST
Luna 12:34 AM CEST (9/13) 3:17 PM CEST (9/13)
Horas de luz 13h 28m
Horas de luz
12h 33m
Gibosa menguante, 48% of the Moon is Illuminated
Sep 13
Gibosa menguante
Sep 20
Nueva
Sep 28
Cuarto creciente
Oct 5
Luna llena
Oct 12
Cuarto menguante

Hourly Weather History & Observations

Hora (CEST) Temp. Punto de rocío Humedad Presión Visibilidad Wind Dir Velocidad del viento Velocidad de ráfagas Precip Eventos Condiciones
12:30 AM 55.4 ° F 35.6 ° F 47% 30.27 pul 6.2 mi Variable 1.2 mph - N/A   Desconocido
1:00 AM 53.6 ° F 35.6 ° F 51% 30.27 pul 6.2 mi Oeste 2.3 mph - N/A   Desconocido
2:00 AM 51.8 ° F 35.6 ° F 54% 30.27 pul 6.2 mi NNE 1.2 mph - N/A   Desconocido
3:30 AM 48.2 ° F 37.4 ° F 66% 30.30 pul 6.2 mi SSO 2.3 mph - N/A   Desconocido
4:30 AM 50.0 ° F 37.4 ° F 62% 30.27 pul 6.2 mi SSO 4.6 mph - N/A   Desconocido
5:30 AM 46.4 ° F 37.4 ° F 71% 30.27 pul 6.2 mi OSO 2.3 mph - N/A   Desconocido
6:30 AM 48.2 ° F 37.4 ° F 66% 30.27 pul 6.2 mi Variable 1.2 mph - N/A   Desconocido
7:30 AM 46.4 ° F 37.4 ° F 71% 30.30 pul 6.2 mi Variable 1.2 mph - N/A   Desconocido
8:00 AM 46.4 ° F 37.4 ° F 71% 30.30 pul 6.2 mi Sin viento Sin viento - N/A   Desconocido
8:30 AM 50.0 ° F 39.2 ° F 66% 30.30 pul 6.2 mi Sur 4.6 mph - N/A   Desconocido
9:00 AM 51.8 ° F 39.2 ° F 62% 30.30 pul 5.6 mi SSE 3.5 mph - N/A   Desconocido
9:30 AM 53.6 ° F 39.2 ° F 58% 30.33 pul 6.2 mi SE 3.5 mph - N/A   Desconocido
10:30 AM 60.8 ° F 41.0 ° F 48% 30.33 pul 6.2 mi Variable 2.3 mph - N/A   Desconocido
11:00 AM 64.4 ° F 41.0 ° F 42% 30.33 pul 6.2 mi SSE 3.5 mph - N/A   Desconocido
11:30 AM 68.0 ° F 41.0 ° F 37% 30.33 pul 6.2 mi SSE 4.6 mph - N/A   Desconocido
12:30 PM 73.4 ° F 42.8 ° F 33% 30.30 pul - ESE 11.5 mph - N/A   Desconocido
1:00 PM 75.2 ° F 41.0 ° F 29% 30.30 pul 6.2 mi SE 13.8 mph - N/A   Desconocido
2:00 PM 77.0 ° F 39.2 ° F 26% 30.27 pul 6.2 mi Sur 13.8 mph - N/A   Desconocido
2:30 PM 78.8 ° F 39.2 ° F 24% 30.27 pul 6.2 mi Sur 12.7 mph - N/A   Desconocido
3:00 PM 80.6 ° F 39.2 ° F 23% 30.24 pul 6.2 mi SSE 15.0 mph - N/A   Desconocido
3:30 PM 82.4 ° F 41.0 ° F 23% 30.24 pul 6.2 mi Sur 16.1 mph - N/A   Desconocido
4:00 PM 82.4 ° F 39.2 ° F 21% 30.24 pul 6.2 mi Sur 10.4 mph - N/A   Desconocido
4:30 PM 84.2 ° F 37.4 ° F 19% 30.21 pul 6.2 mi SSE 16.1 mph - N/A   Desconocido
5:30 PM 82.4 ° F 39.2 ° F 21% 30.21 pul 6.2 mi Sur 18.4 mph - N/A   Desconocido
6:00 PM 82.4 ° F 41.0 ° F 23% 30.18 pul 6.2 mi Sur 18.4 mph 29.9 mph N/A   Desconocido
7:00 PM 80.6 ° F 42.8 ° F 26% 30.18 pul 6.2 mi Sur 18.4 mph - N/A   Desconocido
10:30 PM 68.0 ° F 50.0 ° F 52% 30.21 pul 6.2 mi SE 8.1 mph - N/A   Desconocido